Wind_Speed
35 35 35 35 36 30 28 14 2 9 7 9 13 18 14 12 21 16 10 8 8 7 8 9 8 7 6 6 5 6 7 7 7 6 6 7 9 10 11 12 13 15 16 18 19 21 23 23 22
36 37 38 38 38 33 28 14 6 8 15 14 14 15 24 24 26 4 8 7 9 8 8 8 8 7 7 7 7 7 7 8 6 6 7 8 10 11 12 14 16 17 18 18 19 21 21 21 21
39 39 39 40 38 37 30 20 12 9 18 10 15 20 22 29 24 16 14 10 11 10 9 8 7 4 2 3 2 4 5 7 7 8 9 9 10 11 12 15 17 18 17 17 19 19 19 20 21
47 43 42 43 39 34 35 27 18 14 13 12 19 26 27 28 21 15 12 13 10 9 10 9 8 3 4 3 3 2 2 4 4 7 8 10 11 12 14 17 18 17 17 17 17 18 19 19 20
53 49 46 44 39 35 37 32 28 12 21 7 14 28 28 28 23 12 16 10 11 12 10 11 11 9 7 8 5 5 6 5 4 6 8 11 13 14 16 17 18 18 18 18 19 20 20 20 20
54 54 51 44 39 38 41 40 32 21 17 13 14 20 29 30 24 21 20 16 15 11 11 14 14 13 11 10 11 10 9 9 8 8 10 13 15 15 16 18 18 18 19 21 21 22 22 23 22
56 57 53 45 40 41 35 29 25 14 20 19 12 23 27 34 35 29 20 17 21 19 16 13 15 14 14 12 13 16 13 12 14 13 13 15 16 17 18 20 20 20 22 23 24 25 25 25 24
57 57 56 52 45 42 40 21 40 20 13 23 25 24 33 35 37 34 27 24 26 25 23 23 16 15 17 17 17 16 17 18 17 17 17 18 19 20 21 22 23 24 25 26 27 27 27 26 26
60 63 57 53 48 42 42 32 35 39 32 26 28 33 35 33 37 41 35 25 27 26 26 26 26 21 20 21 21 20 21 22 22 21 20 20 22 24 24 26 26 28 28 28 29 29 29 27 26
60 60 58 52 49 51 48 44 35 28 36 32 34 36 43 32 25 10 38 31 29 32 28 30 31 31 29 26 25 25 25 25 25 26 22 22 25 28 29 30 31 32 33 33 31 29 28 27 27
56 59 54 53 54 60 53 55 39 39 37 41 43 47 50 46 42 34 19 31 35 39 38 37 36 35 33 30 29 28 27 28 28 26 25 24 27 30 31 34 35 36 38 36 32 30 28 27 28
57 53 54 48 60 62 61 60 47 51 53 53 54 55 57 57 54 49 54 61 39 37 40 42 41 39 34 30 31 30 30 30 30 28 28 29 31 33 35 37 39 39 39 36 33 31 29 28 28
59 56 53 46 59 62 62 60 51 46 47 57 60 62 57 55 49 40 38 42 40 40 47 48 47 43 32 32 30 31 30 31 31 32 32 32 34 36 38 40 40 40 38 37 33 33 32 32 28
55 56 54 50 57 61 62 65 63 45 49 46 47 46 54 54 53 53 46 51 24 38 40 43 42 37 40 35 29 30 31 32 33 34 35 37 38 40 41 42 42 41 39 38 36 32 34 28 30
54 56 54 50 54 58 61 62 61 62 57 47 37 36 38 45 49 51 45 50 60 47 33 41 8 19 22 36 28 27 34 34 34 35 36 39 40 44 45 45 47 46 42 37 36 34 29 29 28
57 59 58 55 57 61 62 61 58 55 62 60 56 58 54 43 43 47 50 53 58 48 53 52 41 39 13 34 26 29 36 40 40 38 39 41 43 44 49 51 48 47 42 41 40 40 32 30 29
59 60 60 59 58 63 65 63 58 52 56 57 59 61 57 51 52 52 52 56 58 55 60 53 42 37 29 24 34 35 39 41 44 45 47 48 47 46 51 54 49 46 42 36 45 31 28 28 32
62 63 61 62 59 62 62 62 61 56 55 56 58 55 54 52 53 56 61 57 62 63 65 66 60 47 56 55 36 38 43 45 48 48 50 54 51 50 47 48 45 44 34 36 40 27 26 23 24
58 60 63 63 58 54 60 61 53 58 62 62 61 53 44 46 53 61 58 59 57 67 71 69 67 57 50 48 42 45 47 48 50 50 53 52 52 49 44 45 37 35 36 34 32 34 40 24 30
48 43 51 57 42 34 42 37 39 49 63 65 59 61 59 36 34 50 57 62 60 63 71 71 67 59 58 53 50 50 51 53 53 50 49 50 47 48 45 41 41 40 39 32 33 46 33 30 35
49 45 35 30 25 38 34 39 38 43 49 53 56 61 64 61 39 38 43 46 57 57 60 73 68 64 58 58 56 54 56 57 53 49 48 48 45 47 48 45 41 43 42 39 37 38 47 38 37
44 38 33 28 16 28 39 39 48 33 33 42 50 52 56 60 58 44 39 43 50 52 59 70 71 64 61 58 58 52 52 52 50 50 49 48 46 46 52 37 36 37 42 40 38 41 42 42 42
34 29 25 22 19 27 31 33 36 32 33 33 34 39 47 46 48 52 50 43 43 52 62 67 70 78 73 57 55 52 47 44 45 47 47 47 48 45 36 47 38 39 43 44 44 47 48 43 42
21 24 25 24 30 33 30 26 19 28 29 30 27 29 31 31 35 41 45 48 45 54 66 60 57 64 60 43 39 42 47 49 48 47 43 45 49 49 47 50 49 45 44 45 47 53 51 43 47
28 35 37 35 33 32 17 27 22 22 17 16 22 22 24 31 33 31 33 24 29 43 36 32 38 42 41 40 38 43 45 44 44 44 44 51 51 50 50 50 49 48 49 51 51 49 43 59 59
32 23 27 43 38 38 37 27 25 17 16 12 26 26 22 22 23 27 33 20 22 24 24 27 31 32 34 37 39 41 43 44 49 52 52 54 54 54 55 50 51 56 58 58 60 59 60 63 62
31 33 18 22 25 27 27 23 17 22 27 27 22 23 18 19 23 22 25 27 24 27 31 35 36 37 41 42 44 45 46 46 47 50 52 53 53 55 57 58 58 56 57 56 55 57 59 59 60
21 28 27 21 24 29 28 20 26 21 24 23 20 20 19 22 25 30 33 32 30 26 29 37 37 38 38 41 42 43 45 47 47 48 49 50 53 55 55 57 58 60 59 60 61 64 62 61 60
28 39 32 32 27 22 21 25 31 27 25 26 23 22 18 16 22 26 28 28 27 25 29 35 38 39 38 41 42 44 46 45 46 47 49 51 54 55 58 60 63 63 63 65 66 67 67 65 64
24 18 24 30 27 28 18 17 26 27 31 28 26 23 19 23 25 27 30 30 28 30 31 32 32 33 37 35 38 42 45 46 49 51 53 55 56 58 59 62 64 66 69 70 70 70 70 72 72
Wind_Direction
210 204 206 207 204 197 182 197 266 174 176 197 215 258 218 222 215 172 168 186 229 206 183 169 154 142 137 137 134 117 93 80 65 55 48 45 38 27 17 8 3 357 359 357 354 355 355 353 351
209 210 207 205 204 199 172 159 137 302 249 240 239 242 234 242 247 225 181 173 228 220 196 182 161 153 151 145 132 111 85 59 41 37 35 26 13 8 2 359 357 352 350 348 351 352 350 350 350
213 211 212 208 202 196 171 200 202 202 218 246 274 273 247 237 237 230 205 184 220 212 209 191 175 163 158 160 141 118 90 43 34 35 22 9 3 353 354 347 343 344 341 343 350 349 344 344 343
217 214 213 212 204 191 179 208 211 224 229 228 252 260 258 255 245 248 209 208 209 221 223 219 203 233 261 267 278 308 335 1 19 2 3 358 353 348 340 333 332 337 338 342 345 340 339 341 339
216 218 214 211 201 188 188 205 209 214 229 165 287 248 250 252 249 245 229 226 221 225 227 227 241 258 261 254 259 292 305 316 320 332 339 341 338 337 333 331 333 337 339 339 337 334 334 334 332
220 217 217 212 199 190 191 210 203 221 203 142 254 253 245 244 246 238 240 234 241 241 244 250 255 257 262 271 270 276 292 298 298 311 325 334 334 335 335 336 336 336 335 334 331 329 327 326 325
218 221 216 212 202 194 196 215 206 250 212 189 273 247 249 239 238 234 250 244 250 255 262 259 254 263 270 281 292 281 282 290 292 298 310 318 325 329 330 332 331 329 331 327 325 321 319 318 321
220 222 221 212 199 198 201 195 212 212 226 220 197 250 242 241 247 239 220 222 239 248 258 258 259 265 269 271 275 279 286 290 293 298 307 313 319 318 321 324 326 326 324 322 318 313 312 313 317
219 222 218 216 204 194 213 206 205 211 193 179 210 233 237 243 245 246 237 217 240 247 254 257 258 265 271 270 274 279 280 286 291 295 302 306 308 312 315 316 319 321 318 317 311 309 310 313 313
219 224 221 216 214 211 210 213 218 213 197 206 230 230 239 236 216 346 248 223 227 243 249 253 259 266 271 272 271 275 278 281 282 289 296 301 305 311 313 314 315 317 317 313 311 308 307 309 307
221 220 222 217 217 211 213 207 211 214 208 207 218 232 243 245 249 253 217 227 233 236 244 249 255 259 263 268 269 274 276 277 282 288 292 295 300 305 310 312 311 312 313 310 307 305 306 305 307
223 222 220 220 223 225 218 208 207 214 217 221 225 224 234 240 245 247 247 238 219 230 242 246 251 257 258 265 272 276 276 280 285 289 292 295 300 305 308 308 308 310 309 308 305 305 305 303 306
221 222 220 212 225 223 223 221 219 216 205 217 221 229 238 244 242 242 243 240 233 231 236 245 250 249 254 261 269 271 273 277 279 285 290 292 296 299 301 305 304 306 304 303 303 303 304 304 305
223 223 221 213 224 226 227 223 223 217 215 212 227 232 236 236 244 249 250 256 207 252 235 254 245 257 252 246 255 266 272 276 281 287 291 292 295 299 302 301 300 298 299 301 302 305 304 309 300
221 221 222 213 219 229 226 230 228 230 234 233 241 249 260 259 247 251 256 260 265 267 262 229 224 262 273 239 251 267 274 274 278 281 284 288 295 297 298 297 296 296 295 297 299 299 288 293 298
221 221 220 216 220 232 232 231 232 230 234 237 240 247 249 255 263 269 267 257 258 259 270 240 266 274 222 227 259 271 274 277 280 282 284 288 293 294 295 295 294 295 302 303 303 302 298 292 298
220 224 223 223 222 233 235 234 232 230 234 233 234 239 247 251 258 259 258 260 258 259 260 259 262 269 220 259 266 276 277 281 286 289 291 293 294 292 293 293 294 296 291 297 306 286 287 300 296
224 224 224 226 226 230 234 239 235 231 234 234 236 239 244 243 250 255 257 258 259 258 259 258 262 261 255 277 272 276 281 283 284 286 288 292 292 290 292 295 301 300 286 307 299 271 284 292 292
223 225 225 227 226 230 235 233 243 238 237 240 238 235 242 246 245 248 255 262 266 263 264 263 265 262 260 269 275 273 272 275 280 284 287 288 290 293 293 293 289 295 298 295 270 273 292 290 289
210 209 223 229 225 222 234 238 232 235 239 238 241 237 236 239 248 251 254 257 266 266 263 267 268 275 276 276 274 274 276 279 282 283 284 286 290 292 292 285 288 286 287 287 266 279 298 292 295
202 202 213 220 213 220 238 248 242 249 246 244 244 243 241 240 250 256 259 260 256 271 267 261 269 267 267 273 275 275 277 280 282 284 285 285 287 285 285 285 281 285 290 288 286 272 289 297 297
192 193 182 198 197 241 238 251 246 248 255 253 251 249 247 248 241 255 257 261 259 264 263 262 266 269 271 274 276 276 278 282 281 280 283 284 283 288 286 284 286 291 287 289 285 280 290 294 297
190 191 200 189 227 253 230 248 249 261 254 258 257 255 251 249 253 253 258 264 270 261 256 258 263 263 270 272 274 275 280 280 281 283 284 286 286 286 280 278 297 288 289 289 288 291 289 284 289
166 184 212 209 242 225 235 253 247 231 257 258 255 253 249 249 257 261 259 270 271 258 254 255 261 262 264 269 274 273 269 270 277 282 283 286 289 287 283 289 292 290 288 287 291 291 286 288 294
194 202 202 217 218 228 233 237 254 233 213 232 252 250 254 256 253 257 264 257 263 257 250 257 260 262 267 266 266 268 269 271 274 276 280 279 279 281 283 285 287 288 287 286 285 286 281 278 285
196 214 215 209 225 230 232 231 233 191 219 219 227 243 248 248 252 253 255 258 265 277 278 265 268 270 269 269 271 272 276 277 280 278 276 275 276 278 280 281 279 283 287 286 285 282 281 282 284
195 208 205 206 202 221 218 228 234 209 216 232 233 236 235 234 246 255 260 258 264 264 271 267 264 263 266 267 268 270 268 269 271 273 274 277 278 278 278 279 280 281 281 280 282 282 281 282 281
197 211 212 218 218 212 206 225 231 243 232 237 238 253 258 261 262 256 251 253 255 260 266 268 267 268 266 268 270 271 275 274 273 274 275 276 278 278 278 278 279 278 278 278 276 278 280 279 279
199 194 215 232 235 238 239 208 204 225 227 238 249 254 256 262 272 272 266 262 264 266 258 263 268 268 271 276 278 276 275 277 279 279 279 278 278 278 279 280 278 280 280 281 280 281 280 280 280
205 218 216 226 228 254 256 247 183 219 213 227 236 244 251 251 267 274 278 275 280 275 272 271 273 279 280 275 273 275 275 275 276 277 277 279 281 280 280 280 282 282 282 281 281 280 279 280 280
Height
5878 5881 5884 5890 5898 5902 5907 5912 5910 5910 5915 5912 5916 5912 5916 5919 5922 5927 5922 5924 5928 5928 5929 5930 5932 5933 5934 5936 5937 5937 5938 5939 5939 5939 5940 5940 5940 5939 5938 5937 5936 5935 5933 5931 5929 5928 5927 5925 5923
5874 5877 5880 5882 5892 5898 5907 5908 5906 5908 5912 5906 5914 5917 5919 5918 5918 5922 5923 5923 5928 5930 5930 5931 5932 5934 5935 5936 5937 5938 5939 5939 5940 5940 5939 5939 5939 5938 5937 5936 5935 5934 5932 5930 5928 5927 5926 5924 5922
5868 5871 5876 5878 5885 5894 5905 5903 5902 5906 5908 5911 5909 5915 5918 5921 5922 5924 5920 5922 5928 5929 5930 5931 5932 5933 5934 5935 5936 5936 5937 5938 5939 5939 5939 5938 5937 5937 5936 5935 5934 5932 5931 5929 5927 5926 5925 5924 5922
5861 5865 5870 5873 5882 5894 5899 5900 5901 5902 5909 5910 5910 5911 5913 5917 5922 5925 5922 5925 5925 5929 5930 5931 5933 5933 5934 5934 5935 5936 5936 5936 5937 5938 5937 5937 5936 5935 5934 5933 5932 5930 5929 5927 5925 5924 5923 5922 5920
5851 5858 5862 5869 5879 5890 5895 5895 5897 5898 5900 5907 5906 5909 5908 5912 5919 5922 5925 5923 5925 5928 5928 5931 5932 5932 5933 5934 5935 5936 5936 5935 5935 5936 5935 5935 5934 5933 5932 5931 5930 5929 5927 5925 5924 5922 5921 5919 5917
5844 5849 5857 5865 5878 5886 5890 5888 5891 5898 5902 5901 5901 5904 5906 5911 5913 5919 5921 5924 5923 5926 5927 5929 5929 5931 5932 5933 5934 5935 5935 5935 5934 5934 5934 5933 5932 5932 5931 5930 5928 5927 5925 5923 5922 5920 5918 5916 5914
5839 5843 5851 5862 5874 5878 5886 5882 5890 5893 5897 5898 5895 5896 5900 5902 5904 5910 5915 5921 5920 5924 5927 5927 5928 5929 5931 5931 5932 5933 5933 5933 5933 5932 5931 5931 5930 5929 5929 5927 5926 5924 5923 5921 5919 5917 5915 5912 5910
5834 5837 5845 5853 5866 5876 5875 5875 5881 5887 5894 5899 5894 5887 5890 5895 5899 5903 5907 5915 5917 5922 5924 5924 5925 5926 5927 5928 5929 5930 5930 5930 5930 5929 5928 5928 5928 5927 5926 5924 5923 5922 5920 5918 5916 5914 5912 5909 5907
5822 5826 5836 5849 5862 5872 5872 5870 5872 5882 5879 5892 5887 5884 5887 5891 5894 5899 5908 5911 5916 5917 5919 5921 5921 5921 5922 5923 5924 5925 5926 5926 5927 5925 5926 5925 5925 5924 5923 5921 5919 5917 5916 5914 5912 5910 5908 5906 5904
5812 5820 5832 5845 5855 5859 5859 5862 5867 5876 5877 5886 5881 5881 5876 5885 5886 5895 5900 5908 5908 5911 5914 5915 5915 5915 5917 5918 5919 5920 5921 5922 5922 5921 5922 5922 5921 5920 5919 5916 5915 5914 5912 5910 5908 5905 5903 5901 5899
5810 5817 5828 5839 5836 5842 5852 5857 5866 5869 5867 5874 5868 5873 5874 5882 5887 5895 5895 5894 5901 5904 5904 5905 5907 5909 5911 5913 5914 5915 5916 5916 5916 5917 5918 5917 5916 5915 5914 5912 5911 5909 5907 5905 5903 5900 5898 5896 5894
5802 5811 5819 5828 5828 5835 5841 5850 5857 5858 5860 5867 5864 5859 5865 5872 5882 5886 5877 5876 5879 5896 5898 5896 5898 5900 5904 5907 5910 5912 5911 5912 5913 5912 5912 5911 5910 5910 5909 5907 5904 5903 5901 5899 5897 5895 5893 5891 5888
5795 5803 5812 5818 5817 5827 5833 5845 5850 5853 5854 5859 5859 5862 5861 5870 5878 5879 5868 5874 5862 5885 5889 5890 5885 5886 5894 5901 5905 5905 5905 5906 5907 5907 5906 5905 5905 5905 5903 5901 5899 5896 5894 5893 5891 5889 5888 5885 5883
5792 5796 5803 5812 5810 5818 5826 5830 5844 5850 5853 5858 5859 5864 5864 5868 5869 5871 5872 5864 5832 5873 5880 5880 5876 5884 5891 5893 5896 5899 5901 5900 5902 5900 5901 5899 5897 5897 5896 5893 5892 5889 5886 5885 5884 5883 5880 5879 5880
5781 5786 5793 5803 5805 5806 5816 5824 5835 5847 5848 5856 5859 5863 5869 5871 5877 5871 5871 5872 5868 5869 5846 5861 5857 5877 5878 5886 5892 5894 5897 5896 5897 5897 5896 5894 5892 5889 5888 5886 5883 5881 5881 5879 5876 5874 5874 5872 5870
5770 5775 5782 5797 5797 5800 5808 5818 5827 5839 5840 5845 5854 5857 5862 5867 5868 5865 5865 5868 5856 5856 5859 5865 5858 5871 5870 5875 5882 5885 5887 5888 5888 5888 5890 5890 5888 5885 5880 5878 5876 5875 5874 5871 5866 5863 5863 5861 5863
5757 5765 5778 5787 5795 5794 5799 5809 5821 5827 5830 5837 5843 5848 5854 5861 5863 5861 5857 5855 5854 5853 5853 5856 5860 5867 5868 5873 5875 5877 5879 5880 5879 5876 5875 5878 5881 5877 5873 5869 5869 5867 5864 5861 5856 5854 5853 5854 5854
5753 5761 5771 5779 5790 5788 5794 5801 5811 5817 5819 5827 5833 5842 5846 5853 5854 5851 5849 5852 5850 5847 5844 5845 5854 5866 5867 5865 5870 5869 5869 5869 5871 5872 5870 5867 5870 5869 5868 5864 5861 5857 5857 5853 5848 5848 5846 5848 5844
5745 5752 5760 5769 5781 5781 5782 5794 5803 5807 5807 5813 5824 5833 5837 5842 5846 5841 5843 5844 5845 5844 5837 5841 5844 5852 5859 5860 5861 5863 5865 5865 5865 5864 5863 5860 5857 5858 5858 5856 5852 5851 5851 5847 5843 5840 5839 5839 5835
5737 5745 5752 5761 5776 5778 5779 5784 5791 5793 5799 5806 5811 5820 5828 5836 5839 5838 5839 5841 5841 5839 5836 5832 5834 5840 5840 5848 5853 5855 5856 5857 5856 5856 5855 5852 5851 5848 5845 5843 5843 5843 5841 5838 5837 5835 5832 5830 5828
5731 5738 5748 5759 5769 5774 5776 5775 5784 5789 5792 5796 5802 5809 5815 5824 5831 5830 5831 5833 5835 5834 5835 5833 5835 5838 5839 5835 5843 5845 5845 5846 5846 5846 5845 5843 5842 5839 5837 5837 5835 5833 5831 5831 5828 5825 5824 5820 5817
5728 5741 5749 5756 5759 5761 5768 5769 5774 5783 5784 5786 5793 5798 5806 5812 5823 5821 5823 5824 5826 5829 5830 5830 5828 5831 5832 5834 5830 5830 5833 5836 5836 5837 5838 5834 5833 5834 5825 5828 5824 5818 5821 5819 5818 5818 5813 5810 5807
5727 5736 5745 5753 5755 5757 5761 5763 5768 5774 5777 5782 5784 5790 5795 5802 5808 5816 5814 5816 5819 5822 5821 5822 5823 5822 5825 5824 5825 5825 5826 5828 5827 5826 5826 5823 5821 5823 5821 5816 5810 5813 5809 5807 5803 5803 5804 5801 5799
5730 5737 5742 5746 5750 5750 5756 5760 5767 5766 5776 5777 5778 5782 5787 5793 5798 5802 5807 5808 5809 5811 5812 5812 5815 5815 5814 5814 5815 5816 5817 5818 5818 5820 5818 5815 5812 5810 5807 5800 5799 5802 5801 5796 5793 5794 5792 5790 5787
5727 5731 5736 5739 5742 5745 5752 5755 5759 5765 5770 5773 5772 5773 5779 5783 5787 5793 5798 5798 5800 5802 5802 5804 5805 5805 5807 5806 5808 5808 5808 5808 5807 5808 5807 5808 5804 5800 5796 5793 5789 5790 5788 5787 5786 5781 5779 5777 5775
5725 5725 5731 5736 5741 5746 5752 5748 5754 5761 5764 5770 5769 5770 5773 5776 5779 5784 5789 5792 5794 5794 5797 5798 5798 5797 5798 5798 5797 5798 5796 5795 5794 5792 5792 5794 5792 5787 5786 5783 5779 5777 5774 5771 5770 5767 5764 5761 5759
5723 5725 5733 5733 5738 5742 5745 5745 5748 5756 5756 5762 5767 5771 5771 5772 5772 5775 5777 5780 5784 5787 5789 5790 5790 5789 5789 5788 5787 5786 5785 5783 5782 5781 5778 5776 5775 5775 5772 5770 5767 5763 5760 5758 5755 5751 5749 5746 5744
5721 5728 5731 5730 5735 5734 5739 5737 5744 5748 5751 5757 5762 5765 5766 5767 5768 5770 5772 5774 5778 5780 5779 5778 5778 5778 5778 5778 5776 5776 5775 5773 5770 5768 5765 5763 5761 5760 5757 5755 5750 5748 5744 5741 5740 5738 5736 5734 5731
5717 5720 5724 5729 5730 5729 5732 5734 5734 5739 5743 5749 5753 5755 5758 5760 5760 5758 5760 5763 5765 5770 5770 5770 5768 5767 5768 5767 5765 5764 5763 5759 5757 5755 5753 5751 5749 5747 5743 5739 5737 5731 5728 5726 5723 5721 5718 5716 5714
5716 5719 5723 5725 5730 5727 5727 5729 5731 5734 5735 5741 5745 5749 5753 5754 5755 5755 5756 5757 5757 5757 5762 5762 5761 5758 5755 5757 5757 5753 5751 5750 5747 5743 5740 5738 5734 5731 5727 5724 5719 5715 5712 5708 5703 5702 5699 5696 5694